Location: Unspecified
(42.7170°S, 0.0000°E)
Time: 20:36:18
(UTC+00:00)

N. Korean satellite - Pass Details

Date: 23 May 2019
Orbit: 455 x 510 km, 97.2° (Epoch: 17 June)

Event Time Altitude Azimuth Distance (km) Brightness Sun altitude
Exits shadow 17:11:31 - 146° (SE) 2,293 9.5 -6.0°
Reaches altitude 10° 17:13:17 10° 130° (SE) 1,727 8.8 -6.3°
Maximum altitude 17:15:51 18° 87° (E) 1,323 8.2 -6.7°
Drops below altitude 10° 17:18:23 10° 44° (NE) 1,726 9.1 -7.1°
Sets 17:21:02 0° 23° (NNE) 2,607 10.3 -7.6°
